Location: ????????
(41.2031°N, 22.5756°E)
Time: 06:02:14
(UTC+00:00)

USA 267 - Pass Details

Date: 01 December 2020
Orbit: 1100 x 1107 km, 123.0° (Epoch: 18 January)

Event Time Altitude Azimuth Distance (km) Brightness Sun altitude
Exits shadow 15:46:42 10° 63° (ENE) 2,972 4.8 -8.5°
Reaches altitude 10° 15:46:44 10° 63° (ENE) 2,962 4.8 -8.5°
Maximum altitude 15:51:46 25° 12° (NNE) 2,081 4.4 -9.4°
Drops below altitude 10° 15:56:49 10° 321° (NW) 2,968 5.8 -10.3°
Sets 15:59:46 0° 309° (NW) 3,928 6.6 -10.8°
